Location: El Limón
(10.3059°N, 67.6321°W)
Time: 14:02:34
(UTC+00:00)

Nadezhda 2 Rocket - Pass Details

Date: 14 April 2024
Orbit: 948 x 1009 km, 83.0° (Epoch: 29 May)

Event Time Altitude Azimuth Distance (km) Brightness Sun altitude
Rises 09:47:07 0° 191° (S) 3,638 7.3 -8.8°
Reaches altitude 10° 09:49:39 10° 194° (SSW) 2,684 6.6 -8.2°
Maximum altitude 09:55:41 61° 274° (W) 1,068 4.5 -6.8°
Drops below altitude 10° 10:01:41 10° 354° (N) 2,663 6.9 -5.3°
Sets 10:04:12 0° 357° (N) 3,608 7.6 -4.7°
